This is the latest recevied weather packets stored in our database for station/object KI2K. If no packets are shown the sender has not sent any weather packets the latest 10 day(s).
| Time | Temp. | Humidity | Pressure | Rain* | Wind** | Luminosity | Snow |
|---|---|---|---|---|---|---|---|
| 1777676587 | 11.67° C | 64% | 1015.6 hPa | 0 mm | - | 97 W/m² | - |
| 1777676284 | 11.67° C | 64% | 1015.5 hPa | 0 mm | - | 134 W/m² | - |
| 1777675982 | 11.67° C | 65% | 1015.5 hPa | 0 mm | - | 148 W/m² | - |
| 1777675677 | 12.22° C | 64% | 1015.6 hPa | 0 mm | - | 161 W/m² | - |
| 1777675375 | 12.22° C | 65% | 1015.5 hPa | 0 mm | - | 173 W/m² | - |
| 1777675071 | 11.67° C | 68% | 1015.5 hPa | 0 mm | - | 186 W/m² | - |
| 1777674768 | 11.67° C | 65% | 1015.9 hPa | 0 mm | - | 196 W/m² | - |
| 1777674464 | 11.67° C | 68% | 1016 hPa | 0 mm | - | 179 W/m² | - |
| 1777674162 | 11.11° C | 68% | 1015.9 hPa | 0 mm | - | 219 W/m² | - |
| 1777673858 | 10.56° C | 69% | 1015.8 hPa | 0 mm | - | 122 W/m² | - |
| 1777673555 | 10.56° C | 68% | 1015.9 hPa | 0 mm | - | 88 W/m² | - |
| 1777673253 | 11.11° C | 66% | 1015.7 hPa | 0 mm | - | 107 W/m² | - |
| 1777672950 | 11.11° C | 65% | 1015.7 hPa | 0 mm | - | 269 W/m² | - |
| 1777672647 | 11.11° C | 62% | 1015.7 hPa | 0 mm | - | 260 W/m² | - |
| 1777672342 | 11.11° C | 63% | 1015.9 hPa | 0 mm | - | 104 W/m² | - |
| 1777672037 | 11.11° C | 62% | 1015.7 hPa | 0 mm | - | 104 W/m² | - |
| 1777671734 | 11.11° C | 62% | 1015.5 hPa | 0 mm | - | 86 W/m² | - |
| 1777671430 | 11.67° C | 59% | 1015.5 hPa | 0 mm | - | 121 W/m² | - |
| 1777671126 | 12.22° C | 61% | 1015.6 hPa | 0 mm | - | 145 W/m² | - |
| 1777670823 | 11.67° C | 61% | 1015.5 hPa | 0 mm | - | 180 W/m² | - |
| 1777670519 | 11.67° C | 64% | 1015.4 hPa | 0 mm | - | 190 W/m² | - |
| 1777670216 | 11.67° C | 62% | 1015.6 hPa | 0 mm | - | 204 W/m² | - |
| 1777669913 | 11.67° C | 61% | 1015.4 hPa | 0 mm | - | 196 W/m² | - |
| 1777669610 | 12.22° C | 62% | 1015.2 hPa | 0 mm | - | 225 W/m² | - |
| 1777669307 | 11.67° C | 61% | 1015.3 hPa | 0 mm | - | 570 W/m² | - |
* Rain latest hour (hover to see other rain measurements)
** Current wind speed in m/s (hover to see current wind gust speed)